Home   Weather   Landeck   Past weeks

Flag for Austria Past Weather in Landeck, Tyrol, Austria — Yesterday and Last 2 Weeks

Now
48 °F

Cool.


Feels Like: 48 °F
Forecast: 51 / 77 °F
Wind: 1 mph from Southeast

Location: Landeck

Current Time: Sep 30, 2016 at 5:13:53 AM

Latest Report: Sep 30, 2016 at 4:00 AM


Visibility: N/A

Pressure: 30.21 "Hg (27.47 "Hg at 784m altitude)

Humidity: 86%

Dew Point: 44 °F

Location of LandeckLocation

Past Weather in Landeck — Graph

°F

Landeck Temperature Yesterday

Maximum temperature yesterday: 73 °F (at 3:00 PM)
Minimum temperature yesterday: 47 °F (at 7:00 AM)
Average temperature yesterday: 56 °F

High & Low Weather Summary for the Past Weeks

 TemperatureHumidityPressure
High74 °F (Sep 25, 4:00 PM)94% (Sep 17, 7:00 AM)30.52 "Hg (Sep 17, 7:00 AM)
Low46 °F (Sep 26, 8:00 AM)32% (Sep 26, 4:00 PM)29.80 "Hg (Sep 18, 3:00 PM)
Average57 °F73%30.12 "Hg
* Reported Sep 15 4:00 AM — Sep 30 4:00 AM, Landeck, Weather by CustomWeather, © 2016

Note: Actual official high and low records may vary slightly from our data, if they occured in-between our weather recording intervals... More about our weather records

Advertising

Landeck Weather History for the Previous 24 Hours

Scroll right to see more
 ConditionsComfort  
Time TempWeatherWind HumidityBarometerVisibility
4:00 AM
Fri, Sep 30
48 °FCool.1 mph86%30.21 "HgN/A
3:00 AM50 °FCool.2 mph82%30.21 "HgN/A
2:00 AM50 °FCool.2 mph81%30.21 "HgN/A
1:00 AM51 °FCool.2 mph78%30.20 "HgN/A
12:00 AM52 °FCool.2 mph78%30.21 "HgN/A
11:00 PM
Thu, Sep 29
52 °FCool.1 mph76%30.21 "HgN/A
10:00 PM53 °FCool.1 mph74%30.19 "HgN/A
9:00 PM54 °FCool.2 mph71%30.18 "HgN/A
7:00 PM59 °FCool.1 mph61%30.12 "HgN/A
6:00 PM64 °FMild.2 mph47%30.08 "HgN/A
5:00 PM66 °FMild.2 mph46%30.07 "HgN/A
4:00 PM71 °FMild.1 mph39%30.06 "HgN/A
3:00 PM73 °FMild.1 mph32%30.08 "HgN/A
2:00 PM70 °FMild.1 mph36%30.13 "HgN/A
1:00 PM67 °FMild.1 mph37%30.19 "HgN/A
12:00 PM65 °FMild.1 mph44%30.24 "HgN/A
10:00 AM57 °FRefreshingly cool.5 mph54%30.35 "HgN/A
9:00 AM48 °FCool.1 mph75%30.43 "HgN/A
8:00 AM47 °FCool.3 mph76%30.44 "HgN/A
7:00 AM47 °FCool.2 mph79%30.44 "HgN/A
6:00 AM47 °FCool.2 mph79%30.45 "HgN/A
5:00 AM48 °FCool.2 mph79%30.45 "HgN/A
Weather by CustomWeather, © 2016

See weather overviewHow to use our weather pages